SCP
0 0 0 0 0 0 0 0 0 0 0 0 0 0 0 0 0 0 0 0 0 0 0 0 0 0 0 0 0 0 0 0 0 0 0 0 0 0 0 0 0 0 0 0
0 0 0 0 0 0 0 0 0 0 0 0 0 0 0 0 0 0 0 0 0 0 0 0 0 0 0 0 0 0 0 0 0 0 0 0 0 0 0 0 0 0 0 0
0 0 0 0 0 0 0 0 0 0 0 0 0 0 0 0 0 0 0 0 0 0 0 0 0 0 0 0 0 0 0 0 0 0 0 0 0 0 0 0 0 0 0 0
0 0 0 0 0 0 0 0 0 0 0 0 0 0 0 0 0 0 0 0 0 0 0 0 0 0 0 0 0 0 0 0 0 0 0 0 0 0 0 0 0 0 0 0
0 0 0 0 0 0 0 0 0 0 0 0 0 0 0 0 0 0 0 0 0 0 0 0 0 0 0 0 0 0 0 0 0 0 0 0 0 0 0 0 0 0 0 0
0 0 0 -0 0 0 0 0 0 0 0 0 0 0 0 0 0 0 0 0 0 0 0 0 0 0 0 0 0 0 0 0 0 0 0 0 0 0 0 0 0 0 0 0
0 0 0 0 0 0 0 0 0 0 0 0 0 0 0 0 0 0 0 0 0 0 0 0 0 0 0 0 0 0 0 0 0 0 0 0 0 0 0 0 0 0 0 0
0 0 0 0 0 0 0 0 0 0 0 0 0 0 0 0 0 0 0 0 0 0 0 0 0 0 0 0 0 0 0 0 0 0 0 0 0 0 0 0 0 0 0 0
0 0 0 0 0 0 0 0 0 0 0 0 0 0 0 0 0 0 0 0 0 0 0 0 0 0 0 0 0 0 0 0 0 0 0 0 0 0 0 0 0 0 0 0
0 0 0 0 0 0 0 0 0 0 0 0 0 0 0 0 0 0 0 0 0 0 0 0 0 0 0 0 0 0 0 0 0 0 0 0 0 0 0 0 0 0 0 0
0 0 0 0 0 0 0 0 0 0 0 0 0 0 0 0 0 0 0 0 0 0 0 0 0 0 0 0 0 0 0 0 0 0 0 0 0 0 0 0 0 0 0 0
0 0 0 0 0 0 0 0 0 0 0 0 0 0 0 0 0 0 0 0 0 0 0 0 0 0 0 0 0 0 0 0 0 0 0 0 0 0 0 0 0 0 0 0
0 0 0 0 0 0 0 0 0 0 0 0 0 0 0 0 0 0 0 0 0 0 0 0 0 0 0 0 0 0 0 0 0 0 0 0 0 0 0 0 0 0 0 0
0 0 0 0 0 0 0 0 0 0 0 0 0 0 0 0 0 0 0 0 0 0 0 0 0 0 0 0 0 0 0 0 0 0 0 0 0 0 0 0 0 0 0 0
0 0 0 0 0 0 0 0 0 0 0 0 0 0 0 0 0 0 0 0 0 0 0 0 0 0 0 0 0 0 0 0 0 0 0 0 0 0 0 0 0 0 0 0
0 0 0 0 0 0 0 0 0 0 0 0 0 0 0 0 0 0 0 0 0 0 0 0 0 0 0 0 0 0 0 0 0 0 0 0 0 0 0 0 0 0 0 0
0 0 0 0 0 0 0 0 0 0 0 0 0 0 0 0 0 0 0 0 0 0 0 0 0 0 0 0 0 0 0 0 0 0 0 0 0 0 0 0 0 0 0 0
0 0 0 0 0 0 0 0 0 0 0 0 0 0 0 0 0 0 0 0 0 0 0 0 0 0 0 0 0 0 0 0 0 0 0 0 0 0 0 0 0 0 0 0
0 0 0 0 0 0 0 0 0 0 0 0 0 0 0 0 0 0 0 0 0 0 0 0 0 0 0 0 0 0 0 0 0 0 0 0 0 0 0 0 0 0 0 0
0 0 0 0 0 0 0 0 0 0 0 0 0 0 0 0 0 0 0 0 0 0 0 0 0 0 0 0 0 0 0 0 0 0 0 0 0 0 0 0 0 0 0 0
0 0 0 0 0 0 0 0 0 0 0 0 0 0 0 0 0 0 0 0 0 0 0 0 0 0 0 0 0 0 0 0 0 0 0 0 0 0 0 0 0 0 0 0
0 0 0 0 0 0 0 0 0 0 0 0 0 0 0 0 0 0 0 0 0 0 0 0 0 0 0 0 0 0 0 0 0 0 0 0 0 0 0 0 0 0 0 0
0 0 0 0 0 0 0 0 0 0 0 0 0 0 -0 -0 -0 0 0 0 0 0 0 0 0 0 0 0 0 0 0 0 0 0 0 0 0 0 0 0 0 0 0 0
0 0 0 0 0 0 0 0 0 0 -0 0 0 0 0 0 0 -0 0 0 0 0 0 0 0 0 0 0 0 0 0 0 0 0 0 0 0 0 0 0 0 0 0 0
0 0 0 0 0 0 0 0 0 0 0 0 0 0 0 -0 -0 0 0 0 0 0 0 0 0 0 0 0 0 0 0 0 0 0 0 0 0 0 0 0 0 0 0 0
0 0 0 0 0 0 0 0 0 0 0 0 0 0 0 0 0 0 0 0 0 0 0 0 0 0 0 0 0 0 0 0 0 0 0 0 0 0 0 0 0 0 0 0
0 0 0 0 0 0 0 0 0 0 0 0 0 0 0 0 0 0 0 0 0 0 0 0 0 0 0 0 0 0 0 0 0 0 0 0 0 0 0 0 0 0 0 0
Wind_Speed_500mb
5 7 14 12 21 28 19 38 21 52 26 32 22 15 15 16 25 40 53 61 66 67 65 62 60 57 56 56 58 61 64 65 65 64 61 58 55 49 44 39 32 23 18 16
6 7 6 10 20 27 39 35 42 26 40 17 23 31 18 26 34 46 58 68 74 72 70 70 70 70 68 68 68 67 66 68 68 66 63 59 54 50 45 38 29 23 18 16
16 7 10 7 26 27 27 36 38 37 41 13 13 18 39 42 45 50 56 65 76 80 79 79 81 78 78 77 74 75 74 73 69 66 64 59 54 49 41 34 26 21 19 19
6 6 9 18 13 20 31 26 40 41 5 9 26 51 53 52 53 59 64 64 71 79 82 83 84 85 84 84 84 83 83 80 75 72 66 61 55 47 41 32 26 24 22 21
12 8 10 17 16 14 13 33 27 37 21 34 28 17 44 53 62 65 65 58 63 71 80 86 91 93 93 92 92 89 87 84 79 73 67 61 54 47 39 32 29 26 24 24
6 13 30 38 20 22 18 34 33 31 23 24 29 15 35 61 68 77 76 75 75 75 78 85 92 97 100 101 99 99 94 89 81 74 68 61 54 46 37 33 29 26 24 25
6 7 19 12 9 42 17 25 7 16 41 31 19 42 28 34 36 46 60 73 79 75 78 80 85 96 105 108 110 102 96 89 82 75 67 59 52 43 37 33 29 23 27 28
7 5 29 18 12 34 14 3 4 11 4 21 38 44 51 55 58 54 46 48 51 67 76 79 83 88 103 111 106 101 96 89 84 78 71 62 51 42 36 32 26 30 30 28
18 16 8 38 5 18 7 9 7 6 6 6 9 12 18 21 21 27 35 42 46 53 64 74 78 81 92 102 106 104 99 94 88 80 69 58 48 40 36 30 32 30 36 33
9 6 5 25 17 15 12 16 13 5 3 6 12 15 16 17 14 16 19 26 33 45 56 63 66 71 76 92 106 103 102 98 89 79 68 56 47 41 34 29 30 46 37 35
6 2 6 4 21 10 11 5 1 3 6 10 13 16 17 18 21 18 20 24 26 32 43 51 56 64 74 84 98 104 102 96 88 76 64 53 44 36 25 39 48 40 38 36
6 10 11 9 10 8 7 2 3 5 6 9 15 18 20 21 23 24 22 23 26 31 37 43 49 60 71 79 90 100 100 93 82 70 59 47 36 32 39 54 47 40 37 36
7 7 12 7 7 6 8 8 10 13 13 16 18 22 24 25 25 25 26 28 29 31 35 40 48 56 66 75 83 94 93 87 75 62 49 38 38 44 60 52 46 41 38 37
15 20 12 18 9 8 5 8 9 9 9 19 25 28 31 31 31 30 27 26 28 29 34 40 46 55 62 71 81 88 84 73 62 51 40 39 53 59 56 50 44 41 40 38
11 5 13 15 16 11 10 17 16 15 16 18 22 27 32 35 35 35 33 29 28 29 34 41 47 53 63 73 82 82 76 65 48 38 47 61 59 60 56 51 46 44 41 40
8 9 6 3 10 16 18 15 16 20 23 26 28 31 37 40 40 38 36 37 38 38 39 44 48 51 67 76 78 75 70 48 54 66 64 64 63 60 57 53 49 45 44 42
11 14 16 16 12 12 14 17 21 27 32 34 36 37 40 42 41 41 38 37 39 39 40 43 47 55 70 77 78 71 76 81 75 68 64 63 61 60 58 56 52 49 46 44
24 25 25 25 26 25 24 27 29 32 35 38 39 38 37 32 32 33 35 38 40 42 45 42 47 62 75 80 83 87 82 75 70 65 64 64 64 61 60 58 55 51 48 47
25 26 26 25 25 25 26 27 28 30 33 35 38 38 38 36 37 37 39 43 43 43 42 45 52 64 79 87 87 75 75 72 68 67 66 63 63 64 63 61 57 53 51 49
8 8 8 8 10 11 13 16 18 20 24 28 32 35 38 39 41 41 42 46 43 42 39 43 55 63 75 83 89 78 75 72 70 68 66 65 65 65 63 62 60 56 53 50
4 4 4 2 2 4 7 11 15 20 25 31 36 40 41 41 44 47 51 53 48 46 43 43 51 58 70 77 82 81 82 79 75 73 71 66 66 68 69 66 61 56 53 50
1 2 4 5 6 9 13 18 23 28 33 37 40 42 44 46 48 49 49 53 58 58 57 54 52 57 65 73 81 86 87 83 77 74 74 73 76 72 68 63 59 54 51 48
7 9 12 14 16 19 23 27 32 37 41 44 48 51 54 56 56 57 62 53 56 60 61 59 59 58 58 66 78 84 87 88 88 87 79 76 74 69 64 59 54 52 50 47
11 16 20 23 27 32 32 33 36 40 44 46 48 49 52 54 51 50 52 56 58 59 60 62 59 57 58 64 72 78 82 83 83 80 74 71 67 62 60 56 53 50 49 48
20 23 28 32 36 40 41 43 42 44 45 46 47 47 49 52 55 54 56 56 55 54 53 52 54 57 55 55 62 70 74 75 73 68 66 64 60 57 52 51 49 48 50 48
25 27 30 34 38 41 44 47 51 50 53 53 48 51 50 50 50 51 51 52 50 45 42 40 42 46 41 46 50 55 58 58 58 58 56 55 54 54 54 55 52 51 49 49
30 36 37 34 39 44 46 48 51 48 47 50 51 47 47 45 44 43 42 41 39 36 33 28 28 28 29 33 38 43 46 48 49 50 50 50 51 50 50 49 49 47 49 52
Wind_Direction_500mb
210 172 175 187 186 182 186 220 194 242 227 236 233 241 246 228 212 210 214 214 216 217 217 214 210 205 201 197 194 193 189 188 188 186 185 186 188 190 192 195 198 203 219 238
175 130 171 181 188 188 213 225 240 258 266 237 234 236 224 221 210 216 220 222 222 221 220 218 213 207 202 200 197 195 194 194 192 189 188 191 192 192 194 196 200 212 232 251
223 141 98 339 207 194 214 216 230 231 243 179 204 208 218 220 221 231 236 232 229 227 224 221 218 213 208 205 201 200 199 198 196 195 194 194 193 194 196 200 210 223 234 248
164 86 182 245 183 193 204 216 229 249 257 194 226 243 244 240 240 246 244 244 242 237 230 226 222 218 213 209 206 204 202 201 200 198 197 196 196 197 201 209 218 223 234 251
157 184 294 274 215 163 173 259 225 238 235 231 248 250 254 241 242 251 253 256 259 254 243 230 225 220 216 212 209 206 205 204 203 201 199 199 199 202 207 216 223 228 238 253
124 168 219 256 177 181 92 273 248 233 214 192 180 238 259 258 246 251 250 251 252 249 241 234 229 223 219 216 212 210 208 206 205 203 203 202 203 206 214 221 224 230 247 263
158 201 276 233 143 145 141 257 191 252 242 200 198 231 260 265 267 261 259 258 254 248 245 243 234 227 221 218 216 214 210 207 205 204 203 203 206 211 218 221 223 239 262 254
85 97 259 157 120 167 218 175 85 74 97 209 240 251 262 268 270 271 272 267 261 251 248 245 240 231 223 221 219 215 211 206 204 204 203 204 208 214 218 221 233 257 248 252
175 208 200 183 156 201 171 147 139 105 56 344 300 287 286 285 278 270 264 259 255 251 246 242 239 234 228 224 219 215 208 205 204 204 204 206 212 217 220 230 251 243 261 249
108 211 181 192 198 181 156 131 126 98 9 341 311 298 301 304 305 295 284 277 265 249 243 242 239 233 229 226 219 211 207 204 203 203 204 207 213 217 224 231 263 259 247 254
309 133 82 314 213 186 184 166 43 359 334 333 319 317 308 312 322 324 314 303 286 264 254 248 240 231 227 225 218 209 206 203 202 203 205 211 216 217 243 258 248 244 250 257
215 125 98 115 114 164 189 287 353 335 327 333 328 328 322 322 320 320 317 306 293 275 260 250 241 234 230 225 216 210 204 203 203 203 206 211 211 246 248 241 236 243 251 258
149 65 54 57 59 64 38 45 29 16 359 348 342 333 330 327 325 315 312 305 294 284 271 258 246 237 231 223 213 209 207 203 202 204 206 213 239 242 236 233 237 244 253 262
207 179 172 181 183 184 159 104 89 73 14 355 350 351 347 338 332 329 324 311 297 283 270 261 250 241 230 217 209 206 204 204 203 205 224 249 244 236 233 235 242 248 253 262
158 133 119 137 138 118 2 353 357 15 2 345 335 328 321 321 326 325 320 310 295 279 264 252 245 235 222 211 205 202 200 199 208 237 247 240 236 234 234 237 242 247 254 262
161 131 139 244 295 324 338 342 336 325 320 317 316 310 307 306 304 309 315 311 298 288 275 255 244 230 212 206 202 202 201 220 237 251 241 236 237 238 239 241 245 249 255 262
306 305 307 300 305 305 304 304 308 308 307 306 304 304 305 300 303 305 305 306 299 286 272 259 248 223 212 208 204 204 219 230 237 237 236 239 242 244 243 244 248 253 257 261
270 266 270 274 280 284 286 292 298 301 301 301 301 302 304 307 310 307 304 295 291 288 275 257 239 224 216 212 211 219 227 236 237 236 240 241 243 244 244 246 249 253 257 260
249 248 251 256 266 277 282 286 292 297 299 299 297 294 295 300 301 303 305 299 294 287 280 265 247 232 225 223 221 231 237 234 234 238 241 243 243 244 246 248 251 253 256 259
199 216 232 252 264 275 291 305 320 327 321 315 309 304 301 294 288 286 287 290 296 294 286 274 261 248 238 235 234 244 239 237 239 242 244 245 247 248 250 250 251 252 255 259
123 128 123 96 20 6 354 350 350 347 344 339 337 335 330 322 309 299 288 281 282 283 281 270 263 257 249 243 243 245 245 241 244 246 246 246 251 250 249 248 249 252 255 259
13 345 329 321 321 326 323 323 325 327 326 325 323 320 317 317 315 312 307 295 287 282 280 276 271 262 255 250 249 247 247 247 246 244 246 249 247 247 248 249 250 252 255 257
301 301 298 299 301 305 306 305 308 310 311 312 313 314 314 313 311 310 306 306 300 291 281 275 274 271 266 258 252 248 246 243 242 242 244 245 247 246 246 247 249 251 253 256
299 296 296 299 299 300 301 300 305 308 309 310 309 308 307 306 305 304 302 300 300 300 295 283 274 268 265 258 253 250 246 244 243 242 244 243 242 242 244 245 246 249 254 257
300 298 299 299 300 301 302 300 303 306 306 305 305 304 304 305 304 304 302 301 300 298 295 289 279 269 262 254 250 248 246 244 243 242 241 242 243 242 243 245 248 252 255 261
306 302 301 300 298 298 298 297 297 301 299 299 302 301 301 301 302 302 301 300 300 299 296 290 280 275 270 260 252 248 247 245 246 247 246 246 244 241 241 245 248 253 258 261
306 304 300 296 296 297 297 296 296 298 298 298 300 301 301 301 301 301 301 300 299 298 295 288 280 274 264 258 252 248 246 245 243 242 241 240 241 244 246 249 252 256 262 266
Wind_Speed_850mb
5 7 14 12 21 28 19 38 21 52 26 32 22 15 15 16 25 40 53 61 66 67 65 62 60 57 56 56 58 61 64 65 65 64 61 58 55 49 44 39 32 23 18 16
6 7 6 10 20 27 39 35 42 26 40 17 23 31 18 26 34 46 58 68 74 72 70 70 70 70 68 68 68 67 66 68 68 66 63 59 54 50 45 38 29 23 18 16
16 7 10 7 26 27 27 36 38 37 41 13 13 18 39 42 45 50 56 65 76 80 79 79 81 78 78 77 74 75 74 73 69 66 64 59 54 49 41 34 26 21 19 19
6 6 9 18 13 20 31 26 40 41 5 9 26 51 53 52 53 59 64 64 71 79 82 83 84 85 84 84 84 83 83 80 75 72 66 61 55 47 41 32 26 24 22 21
12 8 10 17 16 14 13 33 27 37 21 34 28 17 44 53 62 65 65 58 63 71 80 86 91 93 93 92 92 89 87 84 79 73 67 61 54 47 39 32 29 26 24 24
6 13 30 38 20 22 18 34 33 31 23 24 29 15 35 61 68 77 76 75 75 75 78 85 92 97 100 101 99 99 94 89 81 74 68 61 54 46 37 33 29 26 24 25
6 7 19 12 9 42 17 25 7 16 41 31 19 42 28 34 36 46 60 73 79 75 78 80 85 96 105 108 110 102 96 89 82 75 67 59 52 43 37 33 29 23 27 28
7 5 29 18 12 34 14 3 4 11 4 21 38 44 51 55 58 54 46 48 51 67 76 79 83 88 103 111 106 101 96 89 84 78 71 62 51 42 36 32 26 30 30 28
18 16 8 38 5 18 7 9 7 6 6 6 9 12 18 21 21 27 35 42 46 53 64 74 78 81 92 102 106 104 99 94 88 80 69 58 48 40 36 30 32 30 36 33
9 6 5 25 17 15 12 16 13 5 3 6 12 15 16 17 14 16 19 26 33 45 56 63 66 71 76 92 106 103 102 98 89 79 68 56 47 41 34 29 30 46 37 35
6 2 6 4 21 10 11 5 1 3 6 10 13 16 17 18 21 18 20 24 26 32 43 51 56 64 74 84 98 104 102 96 88 76 64 53 44 36 25 39 48 40 38 36
6 10 11 9 10 8 7 2 3 5 6 9 15 18 20 21 23 24 22 23 26 31 37 43 49 60 71 79 90 100 100 93 82 70 59 47 36 32 39 54 47 40 37 36
7 7 12 7 7 6 8 8 10 13 13 16 18 22 24 25 25 25 26 28 29 31 35 40 48 56 66 75 83 94 93 87 75 62 49 38 38 44 60 52 46 41 38 37
15 20 12 18 9 8 5 8 9 9 9 19 25 28 31 31 31 30 27 26 28 29 34 40 46 55 62 71 81 88 84 73 62 51 40 39 53 59 56 50 44 41 40 38
11 5 13 15 16 11 10 17 16 15 16 18 22 27 32 35 35 35 33 29 28 29 34 41 47 53 63 73 82 82 76 65 48 38 47 61 59 60 56 51 46 44 41 40
8 9 6 3 10 16 18 15 16 20 23 26 28 31 37 40 40 38 36 37 38 38 39 44 48 51 67 76 78 75 70 48 54 66 64 64 63 60 57 53 49 45 44 42
11 14 16 16 12 12 14 17 21 27 32 34 36 37 40 42 41 41 38 37 39 39 40 43 47 55 70 77 78 71 76 81 75 68 64 63 61 60 58 56 52 49 46 44
24 25 25 25 26 25 24 27 29 32 35 38 39 38 37 32 32 33 35 38 40 42 45 42 47 62 75 80 83 87 82 75 70 65 64 64 64 61 60 58 55 51 48 47
25 26 26 25 25 25 26 27 28 30 33 35 38 38 38 36 37 37 39 43 43 43 42 45 52 64 79 87 87 75 75 72 68 67 66 63 63 64 63 61 57 53 51 49
8 8 8 8 10 11 13 16 18 20 24 28 32 35 38 39 41 41 42 46 43 42 39 43 55 63 75 83 89 78 75 72 70 68 66 65 65 65 63 62 60 56 53 50
4 4 4 2 2 4 7 11 15 20 25 31 36 40 41 41 44 47 51 53 48 46 43 43 51 58 70 77 82 81 82 79 75 73 71 66 66 68 69 66 61 56 53 50
1 2 4 5 6 9 13 18 23 28 33 37 40 42 44 46 48 49 49 53 58 58 57 54 52 57 65 73 81 86 87 83 77 74 74 73 76 72 68 63 59 54 51 48
7 9 12 14 16 19 23 27 32 37 41 44 48 51 54 56 56 57 62 53 56 60 61 59 59 58 58 66 78 84 87 88 88 87 79 76 74 69 64 59 54 52 50 47
11 16 20 23 27 32 32 33 36 40 44 46 48 49 52 54 51 50 52 56 58 59 60 62 59 57 58 64 72 78 82 83 83 80 74 71 67 62 60 56 53 50 49 48
20 23 28 32 36 40 41 43 42 44 45 46 47 47 49 52 55 54 56 56 55 54 53 52 54 57 55 55 62 70 74 75 73 68 66 64 60 57 52 51 49 48 50 48
25 27 30 34 38 41 44 47 51 50 53 53 48 51 50 50 50 51 51 52 50 45 42 40 42 46 41 46 50 55 58 58 58 58 56 55 54 54 54 55 52 51 49 49
30 36 37 34 39 44 46 48 51 48 47 50 51 47 47 45 44 43 42 41 39 36 33 28 28 28 29 33 38 43 46 48 49 50 50 50 51 50 50 49 49 47 49 52
Wind_Direction_850mb
210 172 175 187 186 182 186 220 194 242 227 236 233 241 246 228 212 210 214 214 216 217 217 214 210 205 201 197 194 193 189 188 188 186 185 186 188 190 192 195 198 203 219 238
175 130 171 181 188 188 213 225 240 258 266 237 234 236 224 221 210 216 220 222 222 221 220 218 213 207 202 200 197 195 194 194 192 189 188 191 192 192 194 196 200 212 232 251
223 141 98 339 207 194 214 216 230 231 243 179 204 208 218 220 221 231 236 232 229 227 224 221 218 213 208 205 201 200 199 198 196 195 194 194 193 194 196 200 210 223 234 248
164 86 182 245 183 193 204 216 229 249 257 194 226 243 244 240 240 246 244 244 242 237 230 226 222 218 213 209 206 204 202 201 200 198 197 196 196 197 201 209 218 223 234 251
157 184 294 274 215 163 173 259 225 238 235 231 248 250 254 241 242 251 253 256 259 254 243 230 225 220 216 212 209 206 205 204 203 201 199 199 199 202 207 216 223 228 238 253
124 168 219 256 177 181 92 273 248 233 214 192 180 238 259 258 246 251 250 251 252 249 241 234 229 223 219 216 212 210 208 206 205 203 203 202 203 206 214 221 224 230 247 263
158 201 276 233 143 145 141 257 191 252 242 200 198 231 260 265 267 261 259 258 254 248 245 243 234 227 221 218 216 214 210 207 205 204 203 203 206 211 218 221 223 239 262 254
85 97 259 157 120 167 218 175 85 74 97 209 240 251 262 268 270 271 272 267 261 251 248 245 240 231 223 221 219 215 211 206 204 204 203 204 208 214 218 221 233 257 248 252
175 208 200 183 156 201 171 147 139 105 56 344 300 287 286 285 278 270 264 259 255 251 246 242 239 234 228 224 219 215 208 205 204 204 204 206 212 217 220 230 251 243 261 249
108 211 181 192 198 181 156 131 126 98 9 341 311 298 301 304 305 295 284 277 265 249 243 242 239 233 229 226 219 211 207 204 203 203 204 207 213 217 224 231 263 259 247 254
309 133 82 314 213 186 184 166 43 359 334 333 319 317 308 312 322 324 314 303 286 264 254 248 240 231 227 225 218 209 206 203 202 203 205 211 216 217 243 258 248 244 250 257
215 125 98 115 114 164 189 287 353 335 327 333 328 328 322 322 320 320 317 306 293 275 260 250 241 234 230 225 216 210 204 203 203 203 206 211 211 246 248 241 236 243 251 258
149 65 54 57 59 64 38 45 29 16 359 348 342 333 330 327 325 315 312 305 294 284 271 258 246 237 231 223 213 209 207 203 202 204 206 213 239 242 236 233 237 244 253 262
207 179 172 181 183 184 159 104 89 73 14 355 350 351 347 338 332 329 324 311 297 283 270 261 250 241 230 217 209 206 204 204 203 205 224 249 244 236 233 235 242 248 253 262
158 133 119 137 138 118 2 353 357 15 2 345 335 328 321 321 326 325 320 310 295 279 264 252 245 235 222 211 205 202 200 199 208 237 247 240 236 234 234 237 242 247 254 262
161 131 139 244 295 324 338 342 336 325 320 317 316 310 307 306 304 309 315 311 298 288 275 255 244 230 212 206 202 202 201 220 237 251 241 236 237 238 239 241 245 249 255 262
306 305 307 300 305 305 304 304 308 308 307 306 304 304 305 300 303 305 305 306 299 286 272 259 248 223 212 208 204 204 219 230 237 237 236 239 242 244 243 244 248 253 257 261
270 266 270 274 280 284 286 292 298 301 301 301 301 302 304 307 310 307 304 295 291 288 275 257 239 224 216 212 211 219 227 236 237 236 240 241 243 244 244 246 249 253 257 260
249 248 251 256 266 277 282 286 292 297 299 299 297 294 295 300 301 303 305 299 294 287 280 265 247 232 225 223 221 231 237 234 234 238 241 243 243 244 246 248 251 253 256 259
199 216 232 252 264 275 291 305 320 327 321 315 309 304 301 294 288 286 287 290 296 294 286 274 261 248 238 235 234 244 239 237 239 242 244 245 247 248 250 250 251 252 255 259
123 128 123 96 20 6 354 350 350 347 344 339 337 335 330 322 309 299 288 281 282 283 281 270 263 257 249 243 243 245 245 241 244 246 246 246 251 250 249 248 249 252 255 259
13 345 329 321 321 326 323 323 325 327 326 325 323 320 317 317 315 312 307 295 287 282 280 276 271 262 255 250 249 247 247 247 246 244 246 249 247 247 248 249 250 252 255 257
301 301 298 299 301 305 306 305 308 310 311 312 313 314 314 313 311 310 306 306 300 291 281 275 274 271 266 258 252 248 246 243 242 242 244 245 247 246 246 247 249 251 253 256
299 296 296 299 299 300 301 300 305 308 309 310 309 308 307 306 305 304 302 300 300 300 295 283 274 268 265 258 253 250 246 244 243 242 244 243 242 242 244 245 246 249 254 257
300 298 299 299 300 301 302 300 303 306 306 305 305 304 304 305 304 304 302 301 300 298 295 289 279 269 262 254 250 248 246 244 243 242 241 242 243 242 243 245 248 252 255 261
306 302 301 300 298 298 298 297 297 301 299 299 302 301 301 301 302 302 301 300 300 299 296 290 280 275 270 260 252 248 247 245 246 247 246 246 244 241 241 245 248 253 258 261
306 304 300 296 296 297 297 296 296 298 298 298 300 301 301 301 301 301 301 300 299 298 295 288 280 274 264 258 252 248 246 245 243 242 241 240 241 244 246 249 252 256 262 266